Terminal Aerodrome Forecast
Issued by NWS

Home | Current Version | Previous Version | Text Only | Print | Product List | Glossary On
Versions: 1 2 3 4 5 6 7 8 9 10 11 12 13 14 15 16 17 18 19 20 21 22 23 24 25 26 27 28 29 30 31 32 33
000
FTPA31 PHFO 272300
TAFLNY
TAF
PHNY 272333Z 2800/2824 05015G23KT P6SM SCT025 SCT050
     FM280600 04010KT P6SM FEW030
     FM282000 04012G20KT P6SM FEW025 SCT050
      AMD NOT SKED=

USA.gov is the U.S. government's official web portal to all federal, state and local government web resources and services.